Other Public Products
Issued by NWS Grand Forks, ND

Home | Current Version | Previous Version | Graphics & Text | Print | Product List | Glossary On
Versions: 1 2 3 4 5 6 7 8 9 10 11 12 13 14 15 16 17 18 19 20 21 22 23 24 25 26 27 28 29 30 31 32 33 34 35 36 37 38 39 40 41 42 43 44 45 46 47 48 49 50
000
FPUS83 KFGF 252131
OPUFGF
PRAIRIE TO PINES WEATHER ROUNDUP
NATIONAL WEATHER SERVICE EASTERN NORTH DAKOTA/GRAND FORKS ND
400 PM CDT WED APR 25 2018

 **SATELLITE DATA USED TO AUGMENT SKY COVER AT AUTOMATED STATIONS**
 *****  WEATHER ACROSS EASTERN NORTH DAKOTA  *****

CITY           SKY/WX    TMP DP  RH WIND       PRES   REMARKS
GRAND FORKS    PTSUNNY   62  35  36 SW28G37   29.90F
GRND FORKS AFB FAIR      64  31  29 S24G30    29.89F
GRND FORKS NWS   N/A     63  36  37 SW32      29.87F
BUXTON           N/A     63  38  39 SW21G33     N/A
DEVILS LAKE    FAIR      56  29  35 SW17      29.86F
FARGO          FAIR      65  28  24 S22G32    29.97F
WAHPETON ARPT  FAIR      61  27  27 SW12      30.01F
$$

 *****  WEATHER ACROSS CENTRAL AND WESTERN NORTH DAKOTA  *****

CITY           SKY/WX    TMP DP  RH WIND       PRES   REMARKS
JAMESTOWN      FAIR      65  27  23 SW23G32   29.93F
BISMARCK       FAIR      67  24  19 SW20G30   29.90F
MINOT          FAIR      71  24  17 SW24G33   29.77F
MINOT AFB      FAIR      70  27  20 W23G32    29.76F
GARRISON         N/A     67  24  19 W21G30    29.82F
WILLISTON      FAIR      67  26  21 W17       29.82F
DICKINSON      FAIR      70  15  12 W22G33    29.84F
HETTINGER      FAIR      68  26  20 SW16      29.92F
$$

 *****  OTHER OBSERVATIONS NORTHEAST NORTH DAKOTA  *****

CITY           SKY/WX    TMP DP  RH WIND       PRES   REMARKS
WALHALLA       NOT AVBL
LANGDON        FAIR      64  32  29 SW31G38   29.81F
CAVALIER         N/A     64  30  27 S20G29    29.81F
GRAFTON        FAIR      66  28  24 SW23G37   29.86F
CANDO          FAIR      68  25  19 SW23G31   29.83F
FORT TOTTEN      N/A     63  24  22 SW14      29.95
ROLLA          FAIR      64  34  32 SW22G37   29.78F
RUGBY          FAIR      66  28  24 SW23G33   29.79F
 ***** THE ABOVE OBSERVATIONS ARE NON NWS ARE NOT QUALITY
        CONTROLLED AND MAY MIS-REPORT RAIN FOR SNOW...
$$

 *****  OTHER OBSERVATIONS SOUTHEAST NORTH DAKOTA *****

CITY           SKY/WX    TMP DP  RH WIND       PRES   REMARKS
COOPERSTOWN    FAIR      61  36  39 SW23G32   29.90F
VALLEY CITY    FAIR      63  30  29 SW22G32   29.95F
OAKES            N/A     63  30  29 SW22G29   29.97F
GWINNER          N/A     63  30  29 SW18      29.98F
SHEYENNE NWR     N/A     65  30  27 SW16      29.95S
BUFFALO          N/A     62  29  28 W20         N/A
WYNDMERE       NOT AVBL
 ***** THE ABOVE OBSERVATIONS ARE NON NWS ARE NOT QUALITY
       CONTROLLED AND MAY MIS-REPORT RAIN FOR SNOW...
$$

  *****  WEATHER ACROSS NORTHERN MINNESOTA  *****

CITY           SKY/WX    TMP DP  RH WIND       PRES   REMARKS
FLAG ISLAND    FAIR      54  30  40 SW21G31   29.85F
WARROAD        FAIR      61  37  41 SW17G31   29.89F
ROSEAU         FAIR      61  41  48 SW25G31   29.88F
HALLOCK        FAIR      66  21  18 SW26G38   29.83F
THF RVR FALLS  FAIR      60  34  37 SW25G31   29.93F
HALSTAD        NOT AVBL
FOSSTON        FAIR      61  34  36 SW18G30   29.96F
BAUDETTE       FAIR      61  32  33 SW15G35   29.91F
WASKISH        PTSUNNY   54  32  43 W12       29.95F
CROOKSTON      FAIR      64  36  34 SW26      29.93F
$$
  *****  WEATHER ACROSS CENTRAL AND WEST MINNESOTA  *****

CITY           SKY/WX    TMP DP  RH WIND       PRES   REMARKS
BEMIDJI        FAIR      59  26  27 S15       29.97F
PARK RAPIDS    FAIR      59  28  30 SW10G22   30.02F
WADENA         FAIR      57  30  35 SW12G17   30.02F
DETROIT LAKES  FAIR      59  32  36 S15G23    30.01F
MOORHEAD       FAIR      63  28  27 SW17G24   29.98F
FERGUS FALLS   FAIR      61  34  36 SW14      29.99F
ELBOW LAKE     FAIR      58  33  38 SW9       30.05F
MORRIS MN      FAIR      57  30  35 SW9       30.06F
STAPLES        FAIR      59  27  29 S7        30.04F
WHEATON        FAIR      63  27  25 SW10      30.05F
$$
  *****  WEATHER ELSEWHERE ACROSS MINNESOTA  *****

CITY           SKY/WX    TMP DP  RH WIND       PRES   REMARKS
DULUTH         FAIR      57  24  28 VRB6      30.03F
INTRNTL FALLS  FAIR      62  27  26 SW13G23   29.93F
ELY            FAIR      57  21  24 SW8       29.97F
CLOQUET        FAIR      57  12  17 SW7       30.03F
BRAINERD       FAIR      58  24  27 VRB7      30.05F
HIBBING        FAIR      58  24  27 W7        30.00F
ALEXANDRIA     FAIR      58  28  32 S12       30.07F
SAINT CLOUD    FAIR      56  25  30 SW6       30.08F
MINNEAPOLIS    FAIR      58  22  24 CALM      30.09F
$$

  *****  WEATHER ACROSS SOUTH DAKOTA  *****

CITY           SKY/WX    TMP DP  RH WIND       PRES   REMARKS
SIOUX FALLS    FAIR      60  27  28 VRB6      30.10F
BROOKINGS      FAIR      56  30  37 VRB5        N/A
WATERTOWN      FAIR      57  31  37 SW14      30.07F
HURON          FAIR      62  32  32 S12G17    30.06F
SISSETON         N/A     63  28  26 W14       30.03F
ABERDEEN       FAIR      66  30  26 SW17G28   30.01F
MITCHELL       FAIR      61  34  36 SW10      30.10F
PIERRE         FAIR      66  25  21 S18G24    30.00F
MOBRIDGE       FAIR      66  31  27 S18G28    29.94F
RAPID CITY     FAIR      74  18  12 S18G26    29.93F
$$

  *****  SOME WEATHER IN NEARBY STATES *****

CITY           SKY/WX    TMP DP  RH WIND       PRES   REMARKS
GLASGOW MT     FAIR      64  30  27 NW17      29.90R
GREAT FALLS MT CLOUDY    52  29  41 N13G25    30.16R
CHEYENNE WY    FAIR      61  24  24 VRB3      30.14F
SCOTTSBLUFF NE FAIR      67  26  21 S12G17    30.07F
OMAHA NE       FAIR      61  36  39 CALM      30.10F
DES MOINES IA  FAIR      65  28  24 N9        30.06F
DAVENPORT IA   FAIR      63  27  25 CALM      30.05F
CHICAGO IL     FAIR      49  31  49 NE13      30.05F
EAU CLAIRE WI  FAIR      57  24  28 E3        30.06F
LA CROSSE WI   FAIR      60  29  30 W12       30.06F
$$

  *****  SOME NATIONAL WEATHER *****

CITY           SKY/WX    TMP DP  RH WIND       PRES   REMARKS
LA GUARDIA NY  FOG       54  52  93 NE12      29.68F VSB 1
RALEIGH NC     PTSUNNY   68  59  73 N6        29.74S
ATLANTA GA     CLOUDY    66  53  63 NW15      29.90S
NEW ORLEANS LA FAIR      81  57  43 N8        29.96F
OKLAHOMA CITY  CLOUDY    51  44  77 NW20      30.13F
ALBUQUERQUE NM FAIR      68  30  24 N3        30.19F
SALT LAKE CITY FAIR      73  19  13 N8        30.15F
LOS ANGELES CA FAIR      62  50  64 W12       30.07F
BOISE ID       FAIR      72  34  24 CALM      30.13F
SEATTLE WA     FAIR      71  44  37 N14       30.10F
$$

*** WEATHER ACROSS MANITOBA...SASKATCHEWAN AND ONTARIO ***
                ***ONTARIO***

CITY           SKY/WX    TMP DP  RH WIND       PRES   REMARKS
GERALDTON      MOSUNNY   50  18  27 W9        29.93F
THUNDER BAY    PTSUNNY   52  25  35 SE7       30.00F
SIOUX LOOKOUT  CLOUDY    57  27  30 SW16G22   29.85F
TORONTO        LGT RAIN  50  48  93 N10       29.76S FOG
BIG TROUT LK   CLOUDY    52  27  37 W10G17    29.62F
PICKLE LAKE    CLOUDY    55  25  30 SW17G30   29.74F
DRYDEN         SUNNY     61  25  25 SW20G29   29.85F
KENORA         CLOUDY    59  34  38 SW18G31   29.85F
$$
                *** MANITOBA***

CITY           SKY/WX    TMP DP  RH WIND       PRES   REMARKS
BRANDON        CLOUDY    64  39  39 W20       29.74F
DAUPHIN        SUNNY     61  34  36 N25G32    29.77R
ISLAND LAKE    PTSUNNY   50  28  43 NW12      29.69R
PILOT MOUND      N/A     66  25  20 SW29        N/A
THE PAS        MOSUNNY   50  28  43 NW13G20   29.84R
THOMPSON       CLOUDY    39  28  65 N17G24    29.82R
WINNIPEG       CLOUDY    68  28  22 SW23G38   29.76F
LYNN LAKE      PTSUNNY   36  25  64 N16       29.93R
CHURCHILL      LGT SNOW  18  14  86 N25G35    29.93R DRFTSNOWWCI  -1
GILLAM         LGT SNOW  32  28  86 N26G33    29.76R WCI  18
$$
                ***SASKATCHEWAN***

CITY           SKY/WX    TMP DP  RH WIND       PRES   REMARKS
ESTEVAN        CLOUDY    68  28  22 NW17G30   29.77F
KINDERSLEY     MOSUNNY   59  28  31 N21G31    30.02R
LLOYDMINSTER   MOSUNNY   57  21  24 NW18G28   30.03R
PRINCE ALBERT  MOSUNNY   59  27  29 N16       29.96R
REGINA         PTSUNNY   63  27  25 N18G25    29.86R
YORKTON        MOSUNNY   59  32  36 N17G25    29.83S



USA.gov is the U.S. government's official web portal to all federal, state and local government web resources and services.